Location: Czekanka
(50.4925°N, 19.2643°E)
Time: 11:37:40
(UTC+00:00)

USA 234 - Pass Details

Date: 15 June 2024
Orbit: 1100 x 1107 km, 123.0° (Epoch: 08 July)

Event Time Altitude Azimuth Distance (km) Brightness Sun altitude
Rises 01:36:54 0° 115° (ESE) 3,919 6.4 -6.9°
Reaches altitude 10° 01:39:22 10° 115° (ESE) 2,962 5.7 -6.6°
Maximum altitude 01:45:56 84° 28° (NNE) 1,115 3.4 -5.9°
Drops below altitude 10° 01:52:30 10° 301° (WNW) 2,967 5.4 -5.2°
Sets 01:54:59 0° 301° (WNW) 3,925 6.0 -5.0°
